Flag for British Virgin Islands Weather past 2 weeks in Road Town, Tortola, British Virgin Islands

Now
80 °F

Clear.


Feels Like: 85 °F
Forecast: 79 / 83 °F
Wind: 3 mph from Northeast

Location: Cyril E. King International Airport

Current Time: May 23, 2015 at 2:48:37 AM

Latest Report: May 23, 2015 at 1:53 AM


Visibility: 10 mi

Pressure: 30.08 "Hg

Humidity: 81%

Dew point: 74 °F

Location of Road TownLocation

Historic Weather in Road Town — Graph

°F

Road Town temperature yesterday

Maximum temperature yesterday: 86 °F (at 10:53 AM)
Minimum temperature yesterday: 79 °F (at 3:35 AM)
Average temperature yesterday: 83 °F

Past Weeks' High & Low Weather Summary

 TemperatureHumidityPressure
High90 °F (May 12, 1:53 PM)100% (May 16, 1:21 PM)30.13 "Hg (May 16, 1:21 PM)
Low73 °F (May 17, 3:53 AM)50% (May 13, 1:53 PM)29.95 "Hg (May 20, 4:53 PM)
Average81 °F74%30.05 "Hg
* Reported May 8 1:53 AM — May 23 1:53 AM, Road Town, Weather by CustomWeather, © 2015

Note: Actual official high and low records may vary slightly from our data, if they occured in-between our weather recording intervals... More about our weather records

Advertising

Road Town weather history for previous 24 hours

 ConditionsComfort  
Time TempWeatherWind HumidityBarometerVisibility
1:53 AM
Sat, May 23
80 °FClear.3 mph81%30.08 "Hg10 mi
12:53 AM81 °FClear.8 mph79%30.10 "Hg10 mi
12:33 AM81 °FPassing clouds.5 mph79%30.10 "Hg10 mi
11:53 PM
Fri, May 22
81 °FOvercast.5 mph79%30.12 "Hg10 mi
10:53 PM81 °FPassing clouds.3 mph79%30.13 "Hg10 mi
10:31 PM82 °FOvercast.9 mph77%30.12 "Hg10 mi
9:53 PM82 °FOvercast.8 mph79%30.13 "Hg10 mi
8:53 PM82 °FPassing clouds.5 mph77%30.12 "Hg10 mi
7:53 PM82 °FPassing clouds.9 mph77%30.11 "Hg10 mi
6:53 PM83 °FPassing clouds.13 mph72%30.09 "Hg10 mi
5:53 PM83 °FOvercast.12 mph74%30.08 "Hg10 mi
4:53 PM84 °FPassing clouds.15 mph70%30.07 "Hg10 mi
3:53 PM85 °FPassing clouds.14 mph68%30.07 "Hg10 mi
2:53 PM86 °FPassing clouds.17 mph67%30.07 "Hg10 mi
1:53 PM86 °FOvercast.16 mph65%30.09 "Hg10 mi
12:53 PM85 °FPartly sunny.16 mph70%30.11 "Hg10 mi
12:45 PM85 °FPartly sunny.15 mph70%30.11 "Hg10 mi
12:23 PM86 °FScattered clouds.15 mph65%30.10 "Hg10 mi
11:53 AM86 °FPartly sunny.16 mph67%30.11 "Hg10 mi
10:53 AM86 °FOvercast.16 mph70%30.11 "Hg10 mi
9:53 AM84 °FMostly cloudy.15 mph72%30.12 "Hg10 mi
8:53 AM84 °FOvercast.14 mph74%30.11 "Hg10 mi
7:53 AM83 °FOvercast.15 mph77%30.09 "Hg10 mi
6:53 AM82 °FOvercast.12 mph79%30.08 "Hg10 mi
6:38 AM82 °FMostly cloudy.14 mph79%30.07 "Hg10 mi
5:53 AM81 °FBroken clouds.15 mph82%30.05 "Hg10 mi
4:53 AM80 °FPassing clouds.12 mph85%30.04 "Hg10 mi
3:53 AM80 °FOvercast.7 mph85%30.03 "Hg10 mi
3:45 AM80 °FOvercast.5 mph85%30.04 "Hg10 mi
3:35 AM79 °FOvercast.8 mph88%30.03 "Hg10 mi
2:53 AM80 °FOvercast.6 mph85%30.04 "Hg10 mi
2:34 AM80 °FPassing clouds.6 mph85%30.04 "Hg10 mi
Weather by CustomWeather, © 2015

See weather overviewHow to use our weather pages